Time,TemperatureF,DewpointF,PressureIn,WindDirection,WindDirectionDegrees,WindSpeedMPH,WindSpeedGustMPH,Humidity,HourlyPrecipIn,Conditions,Clouds,dailyrainin,SoftwareType,DateUTC
2013-04-20 00:02:00,29.0,29.0,-100.00,West,275,0.0,1.0,98,0.00,,,-99.99,,2013-04-20 06:02:00,
2013-04-20 00:12:00,29.0,29.0,-100.00,West,275,0.0,1.0,98,0.00,,,-99.99,,2013-04-20 06:12:00,
2013-04-20 00:21:00,29.0,29.0,-100.00,West,275,0.0,0.0,98,0.00,,,-99.99,,2013-04-20 06:21:00,
2013-04-20 00:32:00,29.0,29.0,-100.00,West,275,0.0,1.0,98,0.00,,,-99.99,,2013-04-20 06:32:00,
2013-04-20 00:42:00,29.0,29.0,-100.00,West,275,0.0,1.0,98,0.00,,,-99.99,,2013-04-20 06:42:00,
2013-04-20 00:52:00,29.0,29.0,-100.00,West,275,0.0,1.0,98,0.00,,,-99.99,,2013-04-20 06:52:00,
2013-04-20 01:01:00,29.0,29.0,-100.00,West,275,1.0,1.0,98,0.00,,,-99.99,,2013-04-20 07:01:00,
2013-04-20 01:11:00,29.0,29.0,-100.00,West,275,1.0,1.0,98,0.00,,,-99.99,,2013-04-20 07:11:00,
2013-04-20 01:21:00,29.0,29.0,-100.00,West,275,0.0,1.0,98,0.00,,,-99.99,,2013-04-20 07:21:00,
2013-04-20 01:32:00,29.0,29.0,-100.00,West,275,1.0,1.0,98,0.00,,,-99.99,,2013-04-20 07:32:00,
2013-04-20 01:42:00,29.0,29.0,-100.00,West,275,1.0,1.0,98,0.00,,,-99.99,,2013-04-20 07:42:00,
2013-04-20 01:52:00,29.0,29.0,-100.00,West,275,1.0,2.0,98,0.00,,,-99.99,,2013-04-20 07:52:00,
2013-04-20 02:01:00,29.0,29.0,-100.00,West,275,1.0,1.0,98,0.00,,,-99.99,,2013-04-20 08:01:00,
2013-04-20 02:11:00,29.0,29.0,-100.00,West,280,1.0,2.0,98,0.00,,,-99.99,,2013-04-20 08:11:00,
2013-04-20 02:21:00,29.0,29.0,-100.00,West,280,1.0,2.0,98,0.00,,,-99.99,,2013-04-20 08:21:00,
2013-04-20 02:32:00,29.0,29.0,-100.00,West,280,0.0,1.0,98,0.00,,,-99.99,,2013-04-20 08:32:00,
2013-04-20 02:42:00,29.0,29.0,-100.00,West,280,0.0,0.0,98,0.00,,,-99.99,,2013-04-20 08:42:00,
2013-04-20 02:52:00,29.0,29.0,-100.00,West,280,0.0,0.0,98,0.00,,,-99.99,,2013-04-20 08:52:00,
2013-04-20 03:01:00,29.0,28.0,-100.00,West,280,0.0,0.0,98,0.00,,,-99.99,,2013-04-20 09:01:00,
2013-04-20 03:12:00,29.0,28.0,-100.00,West,280,0.0,0.0,98,0.00,,,-99.99,,2013-04-20 09:12:00,
2013-04-20 03:21:00,29.0,28.0,-100.00,West,280,0.0,0.0,98,0.00,,,-99.99,,2013-04-20 09:21:00,
2013-04-20 03:33:00,29.0,28.0,-100.00,West,280,0.0,0.0,98,0.00,,,-99.99,,2013-04-20 09:33:00,
2013-04-20 03:43:00,29.0,28.0,-100.00,West,280,0.0,0.0,98,0.00,,,-99.99,,2013-04-20 09:43:00,
2013-04-20 03:53:00,29.0,28.0,-100.00,West,280,0.0,0.0,98,0.00,,,-99.99,,2013-04-20 09:53:00,
2013-04-20 04:03:00,29.0,28.0,-100.00,NE,50,0.0,0.0,98,0.00,,,-99.99,,2013-04-20 10:03:00,
2013-04-20 04:13:00,29.0,29.0,-100.00,NE,50,0.0,0.0,98,0.00,,,-99.99,,2013-04-20 10:13:00,
2013-04-20 04:23:00,29.0,28.0,-100.00,NE,50,0.0,0.0,98,0.00,,,-99.99,,2013-04-20 10:23:00,
2013-04-20 04:33:00,28.0,28.0,-100.00,NE,50,0.0,0.0,98,0.00,,,-99.99,,2013-04-20 10:33:00,
2013-04-20 04:42:00,28.0,28.0,-100.00,NE,50,0.0,0.0,98,0.00,,,-99.99,,2013-04-20 10:42:00,
2013-04-20 04:52:00,28.0,28.0,-100.00,NE,50,0.0,0.0,98,0.00,,,-99.99,,2013-04-20 10:52:00,
2013-04-20 05:02:00,28.0,28.0,-100.00,NE,55,0.0,0.0,98,0.00,,,-99.99,,2013-04-20 11:02:00,
2013-04-20 05:12:00,28.0,28.0,-100.00,NE,55,0.0,0.0,98,0.00,,,-99.99,,2013-04-20 11:12:00,
2013-04-20 05:23:00,28.0,28.0,-100.00,ENE,65,0.0,0.0,98,0.00,,,-99.99,,2013-04-20 11:23:00,
2013-04-20 05:32:00,28.0,28.0,-100.00,ENE,75,0.0,0.0,98,0.00,,,-99.99,,2013-04-20 11:32:00,
2013-04-20 05:42:00,28.0,28.0,-100.00,ENE,75,0.0,0.0,98,0.00,,,-99.99,,2013-04-20 11:42:00,
2013-04-20 05:52:00,28.0,28.0,-100.00,East,90,0.0,0.0,98,0.00,,,-99.99,,2013-04-20 11:52:00,
2013-04-20 06:02:00,28.0,28.0,-100.00,East,85,0.0,0.0,98,0.00,,,-99.99,,2013-04-20 12:02:00,
2013-04-20 06:11:00,28.0,28.0,-100.00,ENE,65,0.0,0.0,98,0.00,,,-99.99,,2013-04-20 12:11:00,
2013-04-20 06:22:00,28.0,27.0,-100.00,NE,50,0.0,0.0,98,0.00,,,-99.99,,2013-04-20 12:22:00,
2013-04-20 06:32:00,28.0,27.0,-100.00,East,85,0.0,0.0,98,0.00,,,-99.99,,2013-04-20 12:32:00,
2013-04-20 06:42:00,28.0,28.0,-100.00,ENE,65,0.0,0.0,98,0.00,,,-99.99,,2013-04-20 12:42:00,
2013-04-20 06:52:00,28.0,28.0,-100.00,ENE,65,0.0,0.0,98,0.00,,,-99.99,,2013-04-20 12:52:00,
2013-04-20 07:02:00,28.0,28.0,-100.00,ENE,60,0.0,0.0,98,0.00,,,-99.99,,2013-04-20 13:02:00,
2013-04-20 07:11:00,28.0,28.0,-100.00,East,80,0.0,0.0,98,0.00,,,-99.99,,2013-04-20 13:11:00,
2013-04-20 07:21:00,28.0,28.0,-100.00,East,95,0.0,0.0,98,0.00,,,-99.99,,2013-04-20 13:21:00,
2013-04-20 07:32:00,28.0,28.0,-100.00,ESE,105,0.0,0.0,98,0.00,,,-99.99,,2013-04-20 13:32:00,
2013-04-20 07:42:00,28.0,28.0,-100.00,East,85,0.0,0.0,98,0.00,,,-99.99,,2013-04-20 13:42:00,
2013-04-20 07:52:00,28.0,28.0,-100.00,ENE,70,0.0,0.0,98,0.00,,,-99.99,,2013-04-20 13:52:00,
2013-04-20 08:02:00,29.0,28.0,-100.00,East,80,0.0,0.0,98,0.00,,,-99.99,,2013-04-20 14:02:00,
2013-04-20 08:11:00,29.0,29.0,-100.00,East,80,0.0,0.0,98,0.00,,,-99.99,,2013-04-20 14:11:00,
2013-04-20 08:21:00,29.0,29.0,-100.00,ENE,70,0.0,0.0,98,0.00,,,-99.99,,2013-04-20 14:21:00,
2013-04-20 08:32:00,29.0,29.0,-100.00,ENE,65,0.0,0.0,98,0.00,,,-99.99,,2013-04-20 14:32:00,
2013-04-20 08:42:00,30.0,29.0,-100.00,ENE,65,0.0,0.0,98,0.00,,,-99.99,,2013-04-20 14:42:00,
2013-04-20 08:51:00,30.0,30.0,-100.00,East,90,0.0,0.0,98,0.00,,,-99.99,,2013-04-20 14:51:00,
2013-04-20 09:01:00,31.0,31.0,-100.00,East,85,0.0,0.0,98,0.00,,,-99.99,,2013-04-20 15:01:00,
2013-04-20 09:11:00,31.0,31.0,-100.00,East,90,2.0,4.0,98,0.00,,,-99.99,,2013-04-20 15:11:00,
2013-04-20 09:21:00,31.0,31.0,-100.00,East,80,3.0,4.0,98,0.00,,,-99.99,,2013-04-20 15:21:00,
2013-04-20 09:33:00,31.0,31.0,-100.00,East,90,4.0,5.0,98,0.00,,,-99.99,,2013-04-20 15:33:00,
2013-04-20 09:43:00,31.0,31.0,-100.00,East,95,2.0,4.0,98,0.00,,,-99.99,,2013-04-20 15:43:00,
2013-04-20 09:53:00,32.0,31.0,-100.00,East,80,1.0,3.0,98,0.00,,,-99.99,,2013-04-20 15:53:00,
2013-04-20 10:03:00,33.0,32.0,-100.00,ENE,75,1.0,2.0,98,0.00,,,-99.99,,2013-04-20 16:03:00,
2013-04-20 10:12:00,33.0,33.0,-100.00,North,0,0.0,2.0,98,0.00,,,-99.99,,2013-04-20 16:12:00,
2013-04-20 10:23:00,35.0,35.0,-100.00,North,0,0.0,1.0,98,0.00,,,-99.99,,2013-04-20 16:23:00,
2013-04-20 10:32:00,35.0,34.0,-100.00,NNW,335,1.0,2.0,98,0.00,,,-99.99,,2013-04-20 16:32:00,
2013-04-20 10:42:00,35.0,35.0,-100.00,NNW,340,2.0,3.0,98,0.00,,,-99.99,,2013-04-20 16:42:00,
2013-04-20 10:52:00,35.0,35.0,-100.00,NW,305,5.0,7.0,98,0.00,,,-99.99,,2013-04-20 16:52:00,
2013-04-20 11:02:00,35.0,35.0,-100.00,WNW,295,6.0,8.0,98,0.00,,,-99.99,,2013-04-20 17:02:00,
2013-04-20 11:12:00,35.0,35.0,-100.00,WNW,300,5.0,6.0,97,0.00,,,-99.99,,2013-04-20 17:12:00,
2013-04-20 11:23:00,35.0,34.0,-100.00,NW,305,6.0,8.0,96,0.00,,,-99.99,,2013-04-20 17:23:00,
2013-04-20 11:33:00,36.0,35.0,-100.00,NW,325,5.0,7.0,95,0.00,,,-99.99,,2013-04-20 17:33:00,
2013-04-20 11:42:00,37.0,35.0,-100.00,WNW,295,6.0,7.0,94,0.00,,,-99.99,,2013-04-20 17:42:00,
2013-04-20 11:52:00,40.0,37.0,-100.00,WNW,295,6.0,9.0,90,0.00,,,-99.99,,2013-04-20 17:52:00,
2013-04-20 12:02:00,40.0,35.0,-100.00,WNW,285,6.0,9.0,82,0.00,,,-99.99,,2013-04-20 18:02:00,
2013-04-20 12:12:00,40.0,32.0,-100.00,NW,305,7.0,11.0,73,0.00,,,-99.99,,2013-04-20 18:12:00,
2013-04-20 12:22:00,41.0,31.0,-100.00,WNW,295,9.0,10.0,69,0.00,,,-99.99,,2013-04-20 18:22:00,
2013-04-20 12:32:00,42.0,32.0,-100.00,WNW,295,9.0,12.0,67,0.00,,,-99.99,,2013-04-20 18:32:00,
2013-04-20 12:42:00,42.0,31.0,-100.00,WNW,285,9.0,12.0,65,0.00,,,-99.99,,2013-04-20 18:42:00,
2013-04-20 12:52:00,42.0,29.0,-100.00,WNW,295,12.0,16.0,61,0.00,,,-99.99,,2013-04-20 18:52:00,
2013-04-20 13:02:00,42.0,29.0,-100.00,WNW,300,12.0,16.0,60,0.00,,,-99.99,,2013-04-20 19:02:00,
2013-04-20 13:11:00,42.0,28.0,-100.00,WNW,295,11.0,15.0,57,0.00,,,-99.99,,2013-04-20 19:11:00,
2013-04-20 13:21:00,42.0,28.0,-100.00,WNW,285,9.0,16.0,57,0.00,,,-99.99,,2013-04-20 19:21:00,
2013-04-20 13:32:00,43.0,29.0,-100.00,WNW,300,11.0,14.0,55,0.00,,,-99.99,,2013-04-20 19:32:00,
2013-04-20 13:42:00,44.0,28.0,-100.00,NW,305,11.0,16.0,54,0.00,,,-99.99,,2013-04-20 19:42:00,
2013-04-20 13:52:00,43.0,28.0,-100.00,WNW,300,9.0,14.0,53,0.00,,,-99.99,,2013-04-20 19:52:00,
2013-04-20 14:02:00,44.0,27.0,-100.00,WNW,295,12.0,16.0,51,0.00,,,-99.99,,2013-04-20 20:02:00,
2013-04-20 14:12:00,43.0,26.0,-100.00,WNW,300,9.0,16.0,50,0.00,,,-99.99,,2013-04-20 20:12:00,
2013-04-20 14:21:00,43.0,26.0,-100.00,WNW,300,12.0,17.0,49,0.00,,,-99.99,,2013-04-20 20:21:00,
2013-04-20 14:32:00,44.0,26.0,-100.00,WNW,295,13.0,16.0,48,0.00,,,-99.99,,2013-04-20 20:32:00,
2013-04-20 14:42:00,44.0,26.0,-100.00,WNW,295,14.0,17.0,48,0.00,,,-99.99,,2013-04-20 20:42:00,
2013-04-20 14:52:00,42.0,28.0,-100.00,WNW,300,25.0,32.0,56,0.00,,,-99.99,,2013-04-20 20:52:00,
2013-04-20 15:01:00,40.0,29.0,-100.00,WNW,285,17.0,30.0,66,0.00,,,-99.99,,2013-04-20 21:01:00,
2013-04-20 15:12:00,39.0,29.0,-100.00,WNW,300,11.0,25.0,66,0.00,,,-99.99,,2013-04-20 21:12:00,
2013-04-20 15:22:00,41.0,30.0,-100.00,WNW,285,6.0,16.0,63,0.00,,,-99.99,,2013-04-20 21:22:00,
2013-04-20 15:33:00,42.0,29.0,-100.00,WNW,295,12.0,16.0,58,0.00,,,-99.99,,2013-04-20 21:33:00,
2013-04-20 15:43:00,42.0,29.0,-100.00,WNW,295,6.0,17.0,58,0.00,,,-99.99,,2013-04-20 21:43:00,
2013-04-20 15:52:00,42.0,28.0,-100.00,NW,305,11.0,17.0,56,0.00,,,-99.99,,2013-04-20 21:52:00,
2013-04-20 16:02:00,43.0,28.0,-100.00,WNW,300,11.0,17.0,55,0.00,,,-99.99,,2013-04-20 22:02:00,
2013-04-20 16:12:00,42.0,27.0,-100.00,WNW,295,16.0,20.0,54,0.00,,,-99.99,,2013-04-20 22:12:00,
2013-04-20 16:22:00,42.0,26.0,-100.00,WNW,295,14.0,20.0,52,0.00,,,-99.99,,2013-04-20 22:22:00,
2013-04-20 16:32:00,42.0,26.0,-100.00,WNW,295,19.0,22.0,53,0.00,,,-99.99,,2013-04-20 22:32:00,
2013-04-20 16:42:00,41.0,27.0,-100.00,WNW,295,17.0,21.0,56,0.00,,,-99.99,,2013-04-20 22:42:00,
2013-04-20 16:52:00,41.0,28.0,-100.00,WNW,290,14.0,22.0,58,0.00,,,-99.99,,2013-04-20 22:52:00,
2013-04-20 17:02:00,41.0,28.0,-100.00,WNW,285,13.0,21.0,58,0.00,,,-99.99,,2013-04-20 23:02:00,
2013-04-20 17:11:00,41.0,28.0,-100.00,WNW,295,7.0,15.0,58,0.00,,,-99.99,,2013-04-20 23:11:00,
2013-04-20 17:22:00,41.0,28.0,-100.00,WNW,290,9.0,13.0,58,0.00,,,-99.99,,2013-04-20 23:22:00,
2013-04-20 17:32:00,41.0,28.0,-100.00,West,280,6.0,12.0,58,0.00,,,-99.99,,2013-04-20 23:32:00,
2013-04-20 17:42:00,41.0,28.0,-100.00,West,275,5.0,10.0,59,0.00,,,-99.99,,2013-04-20 23:42:00,
2013-04-20 17:52:00,41.0,28.0,-100.00,WNW,285,6.0,7.0,59,0.00,,,-99.99,,2013-04-20 23:52:00,
2013-04-20 18:01:00,40.0,28.0,-100.00,West,280,6.0,9.0,60,0.00,,,-99.99,,2013-04-21 00:01:00,
2013-04-20 18:11:00,40.0,29.0,-100.00,WNW,295,17.0,22.0,65,0.00,,,-99.99,,2013-04-21 00:11:00,
2013-04-20 18:22:00,38.0,31.0,-100.00,WNW,300,10.0,19.0,74,0.00,,,-99.99,,2013-04-21 00:22:00,
2013-04-20 18:32:00,39.0,33.0,-100.00,WNW,285,4.0,9.0,79,0.00,,,-99.99,,2013-04-21 00:32:00,
2013-04-20 18:42:00,39.0,34.0,-100.00,West,275,5.0,7.0,83,0.00,,,-99.99,,2013-04-21 00:42:00,
2013-04-20 18:52:00,39.0,34.0,-100.00,WNW,295,2.0,6.0,84,0.00,,,-99.99,,2013-04-21 00:52:00,
2013-04-20 19:01:00,38.0,34.0,-100.00,West,270,1.0,3.0,84,0.00,,,-99.99,,2013-04-21 01:01:00,
2013-04-20 19:12:00,38.0,34.0,-100.00,West,275,1.0,4.0,84,0.00,,,-99.99,,2013-04-21 01:12:00,
2013-04-20 19:21:00,38.0,34.0,-100.00,NW,310,3.0,6.0,84,0.00,,,-99.99,,2013-04-21 01:21:00,
2013-04-20 19:32:00,37.0,34.0,-100.00,WNW,300,9.0,11.0,86,0.00,,,-99.99,,2013-04-21 01:32:00,
2013-04-20 19:42:00,37.0,34.0,-100.00,WNW,300,7.0,11.0,90,0.00,,,-99.99,,2013-04-21 01:42:00,
2013-04-20 19:52:00,36.0,34.0,-100.00,WNW,300,4.0,10.0,91,0.00,,,-99.99,,2013-04-21 01:52:00,
2013-04-20 20:02:00,36.0,34.0,-100.00,West,260,0.0,7.0,92,0.00,,,-99.99,,2013-04-21 02:02:00,
2013-04-20 20:11:00,36.0,34.0,-100.00,WNW,290,0.0,2.0,92,0.00,,,-99.99,,2013-04-21 02:11:00,
2013-04-20 20:21:00,36.0,34.0,-100.00,NW,315,1.0,2.0,92,0.00,,,-99.99,,2013-04-21 02:21:00,
2013-04-20 20:32:00,36.0,34.0,-100.00,SW,220,0.0,4.0,92,0.00,,,-99.99,,2013-04-21 02:32:00,
2013-04-20 20:42:00,36.0,34.0,-100.00,WSW,250,0.0,2.0,93,0.00,,,-99.99,,2013-04-21 02:42:00,
2013-04-20 20:52:00,35.0,34.0,-100.00,NW,305,0.0,2.0,93,0.00,,,-99.99,,2013-04-21 02:52:00,
2013-04-20 21:01:00,35.0,33.0,-100.00,WNW,295,0.0,1.0,94,0.00,,,-99.99,,2013-04-21 03:01:00,
2013-04-20 21:11:00,35.0,33.0,-100.00,SW,235,1.0,3.0,94,0.00,,,-99.99,,2013-04-21 03:11:00,
2013-04-20 21:21:00,34.0,33.0,-100.00,SW,235,2.0,3.0,94,0.00,,,-99.99,,2013-04-21 03:21:00,
2013-04-20 21:33:00,34.0,33.0,-100.00,SW,235,1.0,2.0,94,0.00,,,-99.99,,2013-04-21 03:33:00,
2013-04-20 21:42:00,34.0,33.0,-100.00,WSW,240,0.0,0.0,95,0.00,,,-99.99,,2013-04-21 03:42:00,
2013-04-20 21:52:00,34.0,33.0,-100.00,SW,235,0.0,0.0,95,0.00,,,-99.99,,2013-04-21 03:52:00,
2013-04-20 22:02:00,34.0,33.0,-100.00,SW,235,0.0,0.0,95,0.00,,,-99.99,,2013-04-21 04:02:00,
2013-04-20 22:12:00,34.0,33.0,-100.00,SW,235,0.0,0.0,96,0.00,,,-99.99,,2013-04-21 04:12:00,
2013-04-20 22:23:00,33.0,33.0,-100.00,SW,235,0.0,1.0,96,0.00,,,-99.99,,2013-04-21 04:23:00,
2013-04-20 22:33:00,33.0,33.0,-100.00,SW,235,0.0,0.0,96,0.00,,,-99.99,,2013-04-21 04:33:00,
2013-04-20 22:42:00,33.0,32.0,-100.00,SW,235,1.0,2.0,96,0.00,,,-99.99,,2013-04-21 04:42:00,
2013-04-20 22:52:00,33.0,32.0,-100.00,SW,235,0.0,1.0,96,0.00,,,-99.99,,2013-04-21 04:52:00,
2013-04-20 23:02:00,34.0,33.0,-100.00,WSW,240,1.0,2.0,96,0.00,,,-99.99,,2013-04-21 05:02:00,
2013-04-20 23:12:00,34.0,33.0,-100.00,WSW,255,0.0,2.0,96,0.00,,,-99.99,,2013-04-21 05:12:00,
2013-04-20 23:22:00,34.0,33.0,-100.00,West,260,1.0,4.0,96,0.00,,,-99.99,,2013-04-21 05:22:00,
2013-04-20 23:32:00,34.0,33.0,-100.00,West,280,5.0,7.0,97,0.00,,,-99.99,,2013-04-21 05:32:00,
2013-04-20 23:42:00,34.0,33.0,-100.00,WNW,290,6.0,8.0,97,0.00,,,-99.99,,2013-04-21 05:42:00,
2013-04-20 23:52:00,34.0,33.0,-100.00,WNW,285,4.0,7.0,98,0.00,,,-99.99,,2013-04-21 05:52:00,